GEESAT-3 10 (61020 NORAD) Tracking and Keplerian Element Data

This shows tracking and keplerian element data for the satellite.

Feedback or suggestion? Click here.




ElementValue
Catalog61020
NameGEESAT-3 10
Epoch Orbit526
Epoch Day286.87701535
Epoch Year2024
RAAN65.0333
Inclination49.9992
Eccentricity0.0030771
Argument of Perigee345.6741
Mean Anonmoly14.3325
Mean Motion14.92338219
Decay Rate0.00013332
L11 61020U 24159K 24286.87701535 .00013332 00000+0 12996-2 0 9998
L22 61020 49.9992 65.0333 0030771 345.6741 14.3325 14.92338219 5264



Live tracking and technical data element details for GEESAT-3 10 (NORAD 61020). GEESAT-3 10 can be tracked NOW for your location showing map with azimuth and elevation plus other details from your city location.







IsCatalogInMostPopularTable: catalog: 61020, numindb: 6
Update: records affected: 1



GetName: 61020 GEESAT-3 10

Hit Count: updated at: Wed, 04 Dec 2024 17:54:22 GMT